Location: Camaret
(48.2753°N, 4.5961°W)
Time: 01:03:25
(UTC+00:00)

NOSS 3-4 (A) - Pass Details

Date: 29 October 2020
Orbit: 885 x 1327 km, 63.4° (Epoch: 06 November)

Event Time Altitude Azimuth Distance (km) Brightness Sun altitude
Rises 19:41:51 0° 318° (NW) 3,801 7.3 -26.8°
Reaches altitude 10° 19:44:22 10° 318° (NW) 2,904 6.6 -27.2°
Maximum altitude 19:51:20 84° 231° (SW) 1,168 3.8 -28.3°
Enters shadow 19:53:07 56° 151° (SSE) 1,376 3.9 -28.6°
